Location: Newark
(40.9833°N, 0.0333°W)
Time: 02:41:24
(UTC+00:00)

Transit 2A Rocket - Pass Details

Date: 01 November 2020
Orbit: 588 x 914 km, 66.7° (Epoch: 26 November)

Event Time Altitude Azimuth Distance (km) Brightness Sun altitude
Rises 07:53:54 0° 191° (S) 3,525 8.7 13.1°
Reaches altitude 10° 07:56:29 10° 185° (S) 2,594 8.2 13.6°
Maximum altitude 08:02:18 48° 113° (ESE) 1,166 7.1 14.5°
Drops below altitude 10° 08:08:00 10° 41° (NE) 2,542 7.8 15.3°
Sets 08:10:30 0° 36° (NE) 3,449 8.4 15.7°
